| time (UTC) | temp F | wind direction | speed MPH | gust MPH | rain 1hr in | rain 24hr in | rain mn in | humidity % | barometer mb |
| 20260903211519 | 72 | 109 | 4.0 | 11.0 | 0.00 | 0.00 | 0.00 | 23 | 1017.1 |
| 20260903210031 | 71 | 151 | 4.0 | 9.0 | 0.00 | 0.00 | 0.00 | 26 | 1017.3 |
| 20260903204527 | 72 | 94 | 4.0 | 8.0 | 0.00 | 0.00 | 0.00 | 23 | 1017.4 |
| 20260903203028 | 71 | 92 | 8.0 | 16.0 | 0.00 | 0.00 | 0.00 | 25 | 1017.5 |
| 20260903201510 | 70 | 200 | 4.0 | 12.0 | 0.00 | 0.00 | 0.00 | 25 | 1017.7 |
| 20260903200018 | 71 | 117 | 6.0 | 12.0 | 0.00 | 0.00 | 0.00 | 25 | 1017.8 |
| 20260903194532 | 70 | 132 | 4.0 | 9.0 | 0.00 | 0.00 | 0.00 | 24 | 1017.9 |
| 20260903193023 | 70 | 217 | 6.0 | 12.0 | 0.00 | 0.00 | 0.00 | 22 | 1018.1 |
| 20260903191534 | 69 | 114 | 4.0 | 13.0 | 0.00 | 0.00 | 0.00 | 25 | 1018.3 |
| 20260903190008 | 69 | 160 | 4.0 | 12.0 | 0.00 | 0.00 | 0.00 | 25 | 1018.2 |
| 20260903184514 | 70 | 226 | 4.0 | 14.0 | 0.00 | 0.00 | 0.00 | 23 | 1018.1 |
| 20260903183028 | 70 | 155 | 5.0 | 14.0 | 0.00 | 0.00 | 0.00 | 24 | 1018.2 |
| 20260903181531 | 68 | 190 | 3.0 | 9.0 | 0.00 | 0.00 | 0.00 | 26 | 1018.3 |
| 20260903180029 | 65 | 184 | 1.0 | 8.0 | 0.00 | 0.00 | 0.00 | 29 | 1018.6 |
| 20260903174536 | 64 | 102 | 3.0 | 9.0 | 0.00 | 0.00 | 0.00 | 29 | 1018.7 |
| 20260903173025 | 64 | 152 | 7.0 | 10.0 | 0.00 | 0.00 | 0.00 | 28 | 1018.9 |
| 20260903171522 | 64 | 114 | 2.0 | 8.0 | 0.00 | 0.00 | 0.00 | 28 | 1019.1 |
| 20260903170040 | 64 | 141 | 2.0 | 10.0 | 0.00 | 0.00 | 0.00 | 31 | 1019.1 |
| 20260903164541 | 64 | 87 | 1.0 | 4.0 | 0.00 | 0.00 | 0.00 | 31 | 1019.1 |
| 20260903163013 | 63 | 214 | 2.0 | 4.0 | 0.00 | 0.00 | 0.00 | 34 | 1019.2 |
| 20260903161528 | 61 | 117 | 1.0 | 4.0 | 0.00 | 0.00 | 0.00 | 41 | 1019.2 |
| 20260903160030 | 59 | 233 | 1.0 | 3.0 | 0.00 | 0.00 | 0.00 | 47 | 1019.3 |
| 20260903154532 | 58 | 197 | 1.0 | 5.0 | 0.00 | 0.00 | 0.00 | 47 | 1019.4 |
| 20260903153041 | 57 | 179 | 2.0 | 6.0 | 0.00 | 0.00 | 0.00 | 47 | 1019.5 |
| 20260903151515 | 56 | 116 | 2.0 | 4.0 | 0.00 | 0.00 | 0.00 | 44 | 1019.3 |
| 20260903150028 | 53 | 155 | 3.0 | 6.0 | 0.00 | 0.00 | 0.00 | 44 | 1019.3 |
| 20260903144533 | 50 | 86 | 5.0 | 7.0 | 0.00 | 0.00 | 0.00 | 49 | 1019.4 |
| 20260903143033 | 49 | 91 | 3.0 | 5.0 | 0.00 | 0.00 | 0.00 | 52 | 1019.3 |
| 20260903141535 | 48 | 117 | 1.0 | 3.0 | 0.00 | 0.00 | 0.00 | 57 | 1019.4 |
| 20260903140015 | 49 | 150 | 2.0 | 3.0 | 0.00 | 0.00 | 0.00 | 54 | 1019.3 |
| 20260903134529 | 48 | 77 | 1.0 | 3.0 | 0.00 | 0.00 | 0.00 | 55 | 1019.0 |
| 20260903133029 | 47 | 84 | 0.0 | 2.0 | 0.00 | 0.00 | 0.00 | 60 | 1018.9 |
| 20260903131512 | 47 | 135 | 0.0 | 2.0 | 0.00 | 0.00 | 0.00 | 63 | 1018.7 |
| 20260903130012 | 48 | 69 | 0.0 | 2.0 | 0.00 | 0.00 | 0.00 | 59 | 1018.5 |
| 20260903124524 | 48 | 139 | 0.0 | 3.0 | 0.00 | 0.00 | 0.00 | 57 | 1018.4 |
| 20260903123030 | 47 | 157 | 0.0 | 0.0 | 0.00 | 0.00 | 0.00 | 63 | 1018.5 |
| 20260903121538 | 48 | 99 | 0.0 | 0.0 | 0.00 | 0.00 | 0.00 | 51 | 1018.4 |
| 20260903120024 | 49 | 136 | 0.0 | 0.0 | 0.00 | 0.00 | 0.00 | 52 | 1017.9 |
| 20260903114516 | 49 | 133 | 0.0 | 2.0 | 0.00 | 0.00 | 0.00 | 54 | 1017.9 |
| 20260903113025 | 48 | 145 | 0.0 | 2.0 | 0.00 | 0.00 | 0.00 | 60 | 1017.9 |
| 20260903111554 | 49 | 124 | 0.0 | 0.0 | 0.00 | 0.00 | 0.00 | 60 | 1017.9 |
| 20260903110030 | 49 | 186 | 0.0 | 0.0 | 0.00 | 0.00 | 0.00 | 55 | 1017.9 |
| 20260903104527 | 51 | 287 | 0.0 | 1.0 | 0.00 | 0.00 | 0.00 | 54 | 1017.8 |
| 20260903103028 | 53 | 30 | 2.0 | 7.0 | 0.00 | 0.00 | 0.00 | 42 | 1017.5 |
| 20260903101528 | 49 | 80 | 0.0 | 0.0 | 0.00 | 0.00 | 0.00 | 60 | 1017.6 |
| 20260903100033 | 50 | 96 | 0.0 | 0.0 | 0.00 | 0.00 | 0.00 | 55 | 1017.3 |
| 20260903094532 | 50 | 137 | 0.0 | 0.0 | 0.00 | 0.00 | 0.00 | 53 | 1017.3 |
| 20260903093034 | 52 | 205 | 0.0 | 1.0 | 0.00 | 0.00 | 0.00 | 56 | 1016.8 |
| 20260903091531 | 53 | 71 | 0.0 | 3.0 | 0.00 | 0.00 | 0.00 | 44 | 1016.9 |
| 20260903090034 | 51 | 146 | 0.0 | 1.0 | 0.00 | 0.00 | 0.00 | 58 | 1017.4 |
| 20260903084537 | 51 | 150 | 0.0 | 2.0 | 0.00 | 0.00 | 0.00 | 56 | 1017.4 |
| 20260903083033 | 52 | 144 | 0.0 | 1.0 | 0.00 | 0.00 | 0.00 | 58 | 1017.3 |
| 20260903081515 | 52 | 158 | 0.0 | 3.0 | 0.00 | 0.01 | 0.00 | 58 | 1017.1 |
| 20260903080029 | 52 | 51 | 1.0 | 4.0 | 0.00 | 0.01 | 0.00 | 57 | 1017.2 |
| 20260903074531 | 52 | 217 | 0.0 | 0.0 | 0.00 | 0.01 | 0.00 | 54 | 1017.6 |
| 20260903073040 | 53 | 217 | 0.0 | 1.0 | 0.00 | 0.01 | 0.00 | 49 | 1017.7 |
| 20260903071530 | 54 | 120 | 0.0 | 1.0 | 0.00 | 0.01 | 0.00 | 41 | 1017.5 |
| 20260903070036 | 55 | 155 | 0.0 | 5.0 | 0.00 | 0.01 | 0.00 | 51 | 1017.9 |
| 20260903064527 | 56 | 50 | 1.0 | 4.0 | 0.00 | 0.01 | 0.00 | 41 | 1017.5 |
| 20260903063033 | 58 | 79 | 4.0 | 6.0 | 0.00 | 0.01 | 0.00 | 32 | 1017.9 |
| 20260903061551 | 56 | 39 | 2.0 | 7.0 | 0.00 | 0.01 | 0.00 | 42 | 1017.9 |
| 20260903060034 | 58 | 85 | 2.0 | 4.0 | 0.00 | 0.01 | 0.00 | 36 | 1017.5 |
| 20260903054534 | 58 | 266 | 1.0 | 12.0 | 0.00 | 0.01 | 0.01 | 34 | 1017.3 |
| 20260903053027 | 56 | 41 | 5.0 | 6.0 | 0.00 | 0.01 | 0.01 | 39 | 1017.3 |
| 20260903051532 | 56 | 57 | 0.0 | 3.0 | 0.00 | 0.01 | 0.01 | 40 | 1017.4 |
| 20260903050025 | 56 | 148 | 0.0 | 1.0 | 0.00 | 0.01 | 0.01 | 41 | 1017.0 |
| 20260903044526 | 58 | 153 | 0.0 | 3.0 | 0.00 | 0.01 | 0.01 | 41 | 1017.0 |
| 20260903043029 | 59 | 88 | 0.0 | 3.0 | 0.00 | 0.01 | 0.01 | 33 | 1017.2 |
| 20260903041520 | 59 | 114 | 0.0 | 0.0 | 0.00 | 0.01 | 0.01 | 33 | 1017.2 |
| 20260903040021 | 60 | 49 | 0.0 | 2.0 | 0.00 | 0.01 | 0.01 | 30 | 1017.1 |
| 20260903034518 | 61 | 68 | 0.0 | 7.0 | 0.00 | 0.01 | 0.01 | 28 | 1017.3 |
| 20260903033023 | 61 | 18 | 1.0 | 5.0 | 0.00 | 0.01 | 0.01 | 29 | 1017.3 |
| 20260903031532 | 61 | 34 | 5.0 | 8.0 | 0.00 | 0.01 | 0.01 | 29 | 1017.5 |
| 20260903030007 | 62 | 51 | 0.0 | 3.0 | 0.00 | 0.01 | 0.01 | 30 | 1017.7 |
| 20260903024512 | 63 | 34 | 1.0 | 7.0 | 0.00 | 0.02 | 0.01 | 28 | 1017.5 |
| 20260903023028 | 63 | 53 | 4.0 | 10.0 | 0.00 | 0.02 | 0.01 | 28 | 1017.1 |
| 20260903021536 | 64 | 94 | 10.0 | 18.0 | 0.00 | 0.02 | 0.01 | 28 | 1017.0 |
| 20260903020034 | 64 | 25 | 7.0 | 12.0 | 0.00 | 0.02 | 0.01 | 28 | 1017.0 |
| 20260903014521 | 65 | 36 | 7.0 | 10.0 | 0.00 | 0.02 | 0.01 | 28 | 1016.9 |
| 20260903013041 | 65 | 19 | 5.0 | 9.0 | 0.00 | 0.02 | 0.01 | 28 | 1017.0 |
| 20260903011522 | 70 | 280 | 1.0 | 4.0 | 0.00 | 0.02 | 0.01 | 24 | 1016.7 |
| 20260903010035 | 74 | 141 | 0.0 | 4.0 | 0.00 | 0.02 | 0.01 | 23 | 1016.5 |
| 20260903004533 | 73 | 144 | 2.0 | 7.0 | 0.00 | 0.02 | 0.01 | 20 | 1016.4 |
| 20260903003016 | 73 | 158 | 1.0 | 6.0 | 0.00 | 0.02 | 0.01 | 23 | 1016.4 |
| 20260903001534 | 72 | 172 | 3.0 | 13.0 | 0.00 | 0.02 | 0.01 | 23 | 1016.4 |
| 20260903000024 | 72 | 109 | 4.0 | 11.0 | 0.00 | 0.02 | 0.01 | 25 | 1016.5 |
| 20260902234530 | 72 | 200 | 2.0 | 11.0 | 0.00 | 0.02 | 0.01 | 23 | 1016.4 |
| 20260902233032 | 74 | 255 | 2.0 | 5.0 | 0.00 | 0.02 | 0.01 | 26 | 1016.4 |
| 20260902231529 | 73 | 173 | 3.0 | 6.0 | 0.00 | 0.02 | 0.01 | 24 | 1016.4 |
| 20260902230027 | 72 | 152 | 3.0 | 12.0 | 0.00 | 0.02 | 0.01 | 25 | 1016.3 |
| 20260902224543 | 72 | 171 | 2.0 | 8.0 | 0.00 | 0.02 | 0.01 | 28 | 1016.4 |
| 20260902223046 | 72 | 211 | 2.0 | 8.0 | 0.00 | 0.02 | 0.01 | 27 | 1016.5 |
| 20260902221543 | 72 | 166 | 7.0 | 17.0 | 0.00 | 0.02 | 0.01 | 27 | 1016.4 |
| 20260902220043 | 73 | 173 | 5.0 | 12.0 | 0.00 | 0.02 | 0.01 | 27 | 1016.1 |
| 20260902214531 | 73 | 194 | 2.0 | 16.0 | 0.00 | 0.02 | 0.01 | 28 | 1016.1 |
| 20260902213030 | 73 | 166 | 1.0 | 11.0 | 0.00 | 0.02 | 0.01 | 29 | 1016.2 |